|
NORAD ID: 23527 Int'l Code: 1995-012B
Perigee: 978.7 km
Apogee: 1,010.2 km
Inclination: 82.9 °
Period: 104.8 minutes
Semi major axis: 7365 km
Launch date: March 21, 1995
Source: Commonwealth of Independent States (former USSR) (CIS)
Note: This is a ROCKET BODY
Two Line Element Set (TLE):
1 23527U 95012B 13164.19171968 .00000064 00000-0 51868-4 0 7353
2 23527 082.9433 033.9407 0021367 075.4368 072.1360 13.73432553913703
Source:
NASA's NSSDC Master Catalog entry for SL-8 R/B
|